Regional Weather Roundup
Issued by NWS Goodland, KS

Home | Current Version | Previous Version | Graphics & Text | Print | Product List | Glossary On
Versions: 1 2 3 4 5 6 7 8 9 10 11 12 13 14 15 16 17 18 19 20 21 22 23 24 25 26 27 28 29 30 31 32 33 34 35 36 37 38 39 40 41 42 43 44 45 46 47 48 49 50
000
ASUS43 KGLD 210359
RWRGLD

GOODLAND FORECAST AREA HOURLY WEATHER ROUNDUP
NATIONAL WEATHER SERVICE GOODLAND KS
900 PM MST SAT JAN 20 2018

...OFFICIAL OBSERVATIONS...

CITY           SKY/WX    TMP DP  RH WIND       PRES   REMARKS
GOODLAND KS    MOCLDY    29  26  89 N9        29.76S
HILL CITY KS   CLOUDY    31  26  82 CALM      29.77F
IMPERIAL NEB   CLOUDY    30  28  92 N10       29.84R
MCCOOK NEB     CLOUDY    33  29  85 N13       29.81R
AKRON CO       CLOUDY    29  27  92 NE14      29.81F WCI  18
BURLINGTON CO  MOCLDY    29  25  85 N9        29.77S
LIMON CO       CLOUDY    28  27  96 N16       29.77S WCI  16
$$

...UNOFFICIAL OBSERVATIONS...

CITY           SKY/WX    TMP DP  RH WIND       PRES   REMARKS
NORTON KS      CLEAR     34  27  75 N8        29.77
SHARON SPRINGS   N/A     29  23  77 CALM        N/A
KIT CARSON CO    N/A     32  25  74 MISG        N/A
YUMA CO        CLOUDY    30  27  86 N14       29.82F WCI  20
$$




USA.gov is the U.S. government's official web portal to all federal, state and local government web resources and services.